Orbital Elements at Epoch 2459000.5 (2020-May-31.0) TDB
Reference: JPL 26 (heliocentric ecliptic J2000)
Element | Value | Uncertainty (1-sigma) | Units |
e | .07840932078039388 | 3.9614e-08 | |
a | 2.590984284444711 | 1.243e-08 | au |
q | 2.387826966548726 | 1.0019e-07 | au |
i | 14.52287624047953 | 4.9805e-06 | deg |
node | 191.3793089584942 | 1.5093e-05 | deg |
peri | 71.27379009298241 | 3.3647e-05 | deg |
M | 236.2621225037453 | 2.9529e-05 | deg |
tp | 2459524.095320482658 (2021-Nov-05.59532048) | 0.0001252 | TDB |
period | 1523.335612245831 4.17 | 1.0962e-05 3.001e-08 | d yr |
n | .236323497662644 | 1.7006e-09 | deg/d |
Q | 2.794141602340695 | 1.3404e-08 | au |
|
| | Orbit Determination Parameters
Additional Information
|